Flag for India Weather past 2 weeks in Jodhpur, Rajasthan, India

Now
57 °F

Fog.


Feels Like: 57 °F
Forecast: 49 / 68 °F
Wind: 3 mph from West

Location: Jaipur / Sanganer

Current Time: Jan 27, 2015 at 11:19:41 AM

Latest Report: Jan 27, 2015 at 10:00 AM


Visibility: 2 mi

Pressure: 30.18 "Hg

Humidity: 77%

Dew point: 50 °F

Location of JodhpurLocation

Historic Weather in Jodhpur — Graph

°F

Jodhpur temperature yesterday

Maximum temperature yesterday: 63 °F (at 2:30 PM)
Minimum temperature yesterday: 52 °F (at 5:00 AM)
Average temperature yesterday: 56 °F

Past Weeks' High & Low Weather Summary

 TemperatureHumidityPressure
High72 °F (Jan 13, 4:00 PM)100% (Jan 13, 5:00 AM)30.21 "Hg (Jan 13, 5:00 AM)
Low45 °F (Jan 13, 8:00 AM)23% (Jan 18, 2:00 PM)29.92 "Hg (Jan 14, 5:00 AM)
Average58 °F79%30.10 "Hg
* Reported Jan 12 10:30 AM — Jan 27 9:00 AM, Jodhpur, Weather by CustomWeather, © 2014

Note: Actual official high and low records may vary slightly from our data, if they occured in-between our weather recording intervals... More about our weather records

Advertising

Jodhpur weather history for previous 24 hours

 ConditionsComfort  
Time TempWeatherWind HumidityBarometerVisibility
9:00 AM
Jan 27
55 °FFog.2 mph94%30.15 "Hg1 mi
8:30 AM54 °FFog.2 mph100%30.15 "Hg1 mi
8:00 AM50 °FFog.No wind100%30.12 "Hg1 mi
7:30 AM50 °FFog.No wind100%30.12 "Hg1 mi
7:00 AM50 °FFog.No wind100%30.12 "Hg1 mi
6:00 AM54 °FFog.2 mph94%30.09 "Hg1 mi
5:30 AM54 °FFog.2 mph100%30.09 "Hg1 mi
5:00 AM54 °FFog.2 mph100%30.09 "Hg1 mi
4:00 AM54 °FFog.3 mph100%30.09 "Hg1 mi
3:00 AM54 °FFog.1 mph100%30.12 "Hg1 mi
2:00 AM54 °FFog.No wind100%30.12 "Hg1 mi
1:30 AM54 °FFog.No wind100%30.12 "Hg1 mi
12:00 AM54 °FFog.7 mph100%30.12 "Hg1 mi
11:30 PM
Jan 26
54 °FFog.3 mph100%30.12 "Hg1 mi
11:00 PM54 °FFog.3 mph100%30.15 "Hg1 mi
10:30 PM54 °FFog.1 mph100%30.12 "Hg1 mi
10:00 PM54 °FFog.5 mph100%30.15 "Hg1 mi
9:00 PM55 °FFog.2 mph100%30.12 "Hg1 mi
8:30 PM55 °FFog.3 mph100%30.12 "Hg1 mi
8:00 PM55 °FFog.6 mph100%30.12 "Hg1 mi
7:30 PM57 °FFog.6 mph94%30.12 "Hg1 mi
7:00 PM59 °FFog.5 mph88%30.09 "Hg1 mi
6:00 PM61 °FFog.5 mph83%30.07 "Hg1 mi
5:00 PM63 °FFog.3 mph73%30.07 "Hg1 mi
4:00 PM61 °FFog.3 mph77%30.09 "Hg1 mi
3:00 PM63 °FFog.3 mph73%30.07 "Hg1 mi
2:30 PM63 °FFog.5 mph73%30.09 "Hg1 mi
1:30 PM61 °FFog.3 mph83%30.12 "Hg1 mi
1:00 PM59 °FFog.5 mph88%30.15 "Hg1 mi
12:00 PM59 °FFog.5 mph88%30.18 "Hg1 mi
11:00 AM55 °FFog.5 mph100%30.18 "Hg1 mi
Weather by CustomWeather, © 2014

See weather overviewHow to use our weather pages